Vorticity
6 5 5 5 5 5 5 5 4 4 4 4 4 3 3 3 3 3 3 3 2 2 2 2 2 4 5 5 6 5 5 5 6 6 6 6 6 6 6 6 6 6 5 5 5 5 5 5 5 5 5 5 5 6 6 6 6 7 7 7 8 10 12 14 14 13 11 9 9 11 14 14 9 3 5 8 7 5 7 7 7 8 7 4 3
6 6 5 6 6 6 6 6 5 5 5 5 5 4 4 3 3 2 2 2 2 1 1 0 1 4 6 8 8 7 7 6 6 7 7 7 7 6 6 6 6 6 5 5 5 5 6 6 5 5 5 5 5 5 6 6 6 6 7 8 7 8 9 11 14 16 16 13 10 9 10 15 17 11 4 4 7 6 6 7 7 7 9 7 5
7 7 6 6 6 6 7 6 6 7 7 6 5 4 3 1 1 1 2 2 1 0 0 1 4 8 10 9 8 8 8 7 7 7 7 7 7 7 7 6 7 7 6 6 5 5 6 6 7 6 6 6 5 5 5 5 6 6 6 7 7 8 8 9 10 14 17 16 14 12 10 10 15 18 13 6 4 4 4 6 7 5 7 9 8
9 9 8 8 8 8 8 8 8 8 7 5 4 3 2 1 1 2 2 2 1 1 3 6 9 11 10 9 8 8 7 7 7 7 7 7 7 7 8 7 8 8 7 7 6 6 6 6 7 7 7 7 6 6 5 4 5 5 6 7 7 7 8 8 8 10 13 15 15 14 14 12 11 14 17 14 8 5 5 6 6 5 5 7 9
9 10 9 10 10 10 10 9 9 8 6 5 4 3 3 2 2 2 2 2 3 5 8 10 11 11 9 8 8 8 8 8 9 9 9 9 9 9 9 9 9 8 8 8 8 8 8 7 7 8 8 8 7 7 6 6 5 5 5 6 7 7 7 8 8 8 10 13 14 13 14 17 15 13 14 15 13 12 10 7 6 4 4 6 7
8 8 8 9 10 10 10 9 8 7 6 6 5 4 4 3 3 4 4 6 7 9 11 11 11 10 10 10 9 9 10 10 10 10 10 11 11 11 10 10 10 9 9 9 9 9 9 8 8 8 8 8 8 8 7 7 6 5 5 5 6 7 7 7 8 8 8 9 11 12 13 15 17 16 15 14 13 14 14 12 10 6 5 5 6
7 7 7 8 8 8 8 7 7 6 6 6 6 6 6 5 6 6 7 9 11 12 12 12 11 10 9 9 9 9 9 10 10 11 10 10 10 10 11 10 10 10 10 10 10 10 10 9 9 9 9 9 8 8 8 8 8 7 6 5 5 6 7 7 8 8 8 7 7 9 10 10 13 16 17 16 15 15 15 15 13 12 9 5 4
6 6 7 7 7 7 7 7 7 7 7 7 7 7 7 7 8 9 11 12 12 12 11 9 9 9 9 10 11 12 12 12 13 13 12 12 12 11 11 11 11 11 10 10 10 10 10 9 9 9 10 10 9 10 9 8 9 8 8 6 5 5 7 7 8 8 8 7 7 7 7 6 8 11 14 16 17 16 16 15 13 14 14 10 6
5 6 6 6 7 7 7 7 7 7 8 8 7 8 8 9 11 11 12 11 10 10 10 9 10 10 10 11 11 12 12 13 14 14 13 13 13 13 12 12 11 11 10 10 10 10 10 9 10 10 10 11 10 11 10 9 9 9 9 8 7 6 6 6 7 8 8 7 7 8 7 5 5 5 7 11 14 16 17 16 13 12 12 13 11
6 6 7 8 8 8 8 8 9 9 9 9 9 10 11 11 11 11 10 10 9 9 9 9 9 9 10 11 11 12 13 13 14 14 13 13 13 13 13 12 12 11 11 11 11 11 11 11 11 11 11 11 10 10 10 10 10 10 9 9 8 7 6 6 7 8 8 9 8 7 7 7 6 5 4 5 8 12 16 17 16 14 10 10 14
7 7 8 8 9 9 9 9 9 9 9 11 11 12 13 13 12 12 11 10 9 9 9 9 9 10 12 13 13 13 13 13 13 13 13 13 13 13 13 13 13 13 12 13 12 12 12 12 12 12 11 12 11 10 10 10 10 11 11 11 9 8 6 6 6 7 8 9 8 7 7 8 8 9 7 5 4 5 11 16 17 17 15 11 13
11 11 11 11 11 10 10 10 11 12 13 13 14 13 13 13 12 11 10 10 9 9 9 10 10 12 13 14 13 12 12 12 12 12 12 13 13 13 13 13 13 13 13 13 13 13 12 12 12 12 12 12 12 12 12 11 11 11 11 11 11 9 8 6 6 7 8 9 9 9 8 7 7 9 10 9 7 4 5 10 15 17 17 17 14
14 14 14 14 14 13 13 14 15 15 14 13 12 11 11 10 9 9 9 9 9 10 10 11 12 13 12 12 11 10 10 11 11 12 12 13 13 13 13 12 12 12 12 12 12 12 12 12 11 11 11 11 11 11 11 11 12 12 11 11 11 10 9 7 6 6 7 9 9 9 9 8 6 7 9 9 10 10 6 4 9 13 13 18 20
12 12 13 14 14 14 13 13 13 12 11 10 10 10 9 8 8 8 8 9 9 10 11 11 11 10 9 9 9 9 10 10 11 11 11 11 12 12 12 12 11 12 11 10 11 11 11 11 11 11 11 11 11 10 10 10 10 11 10 10 10 10 8 7 6 6 7 9 10 9 9 9 7 7 7 7 8 11 11 6 6 9 10 13 20
10 10 11 12 11 11 11 11 11 10 9 9 9 8 8 7 8 8 9 10 10 10 9 9 8 7 8 9 9 9 10 10 10 10 10 11 11 11 11 10 10 11 11 10 10 10 10 10 10 10 10 9 9 10 10 10 9 9 10 10 10 10 9 8 8 8 9 10 11 11 9 9 8 7 7 7 7 8 10 10 8 8 9 10 14
9 10 11 10 9 10 10 10 9 9 9 8 8 7 7 7 8 9 10 10 9 8 7 7 8 8 9 10 10 10 11 11 11 10 10 10 10 10 10 10 10 10 11 11 11 10 11 11 11 11 11 11 11 10 9 9 9 9 9 9 10 10 10 10 10 10 11 11 11 11 11 9 9 9 7 7 8 7 7 8 10 10 10 9 10
10 10 11 10 10 11 10 9 8 8 8 7 6 7 8 8 9 9 9 8 8 8 8 9 10 11 11 11 11 11 11 11 11 10 10 10 10 10 11 11 11 11 12 12 12 12 12 11 11 12 11 11 12 11 11 11 10 10 10 9 9 9 9 9 10 10 10 11 11 11 11 10 9 10 9 7 7 8 7 6 9 11 11 10 9
11 11 11 11 12 10 9 9 9 8 7 6 6 7 8 9 9 8 8 8 9 10 10 11 11 11 11 11 11 11 10 10 11 11 11 11 12 12 13 12 12 12 12 11 11 11 11 10 10 10 10 10 9 10 10 10 10 11 11 11 11 11 11 10 11 10 10 10 10 10 10 10 9 9 9 9 8 7 7 7 7 8 10 13 12
11 12 12 12 10 9 9 9 8 7 6 6 7 8 8 8 8 8 9 10 11 11 11 11 11 11 11 11 10 10 11 11 12 13 13 13 13 13 13 12 12 11 11 11 11 11 10 11 11 10 10 11 10 10 11 11 11 11 11 11 11 11 11 11 11 12 11 10 10 10 9 9 9 9 9 10 9 8 8 9 8 7 7 11 13
11 12 12 10 8 8 8 8 6 6 6 7 8 8 9 9 9 10 11 11 11 11 11 11 10 10 10 11 11 12 13 13 14 13 13 12 12 11 10 11 11 11 11 11 11 12 12 12 13 13 12 13 13 14 13 13 13 12 12 12 12 11 11 11 10 11 11 12 11 11 11 10 9 9 9 9 9 9 9 9 8 7 7 8 12
13 12 10 9 9 9 8 6 6 6 7 8 8 8 9 10 11 11 11 11 11 11 11 11 10 11 12 13 14 14 13 12 11 10 10 10 10 10 11 11 12 12 13 13 13 14 14 14 15 15 16 15 16 16 17 16 16 15 15 15 15 14 13 12 11 11 10 11 11 11 12 12 11 10 10 9 10 9 10 10 9 8 8 7 10
12 10 9 9 9 8 7 6 6 7 8 8 9 10 11 12 12 12 11 11 11 10 10 11 13 14 14 14 13 11 11 11 11 11 12 12 13 13 14 14 14 15 15 15 15 15 15 15 16 17 18 18 17 17 18 18 18 19 19 19 19 19 18 16 14 13 11 11 11 10 11 12 12 12 11 11 11 10 10 11 10 8 8 7 8
10 9 9 9 8 7 6 5 6 7 8 10 11 12 12 12 12 11 11 10 10 11 13 14 14 14 13 11 11 10 11 12 13 13 14 15 16 17 17 17 17 17 17 17 17 17 17 16 16 16 16 16 16 15 14 14 14 14 14 15 16 17 19 20 19 19 17 15 13 11 10 10 11 12 12 12 12 11 10 10 10 9 9 8 8
10 9 9 8 7 6 5 6 7 9 10 12 12 12 12 12 11 11 11 12 13 14 14 14 12 11 10 10 12 12 13 15 15 16 18 18 18 19 19 19 19 19 18 18 18 18 17 16 15 15 16 16 16 15 15 14 14 13 12 13 12 12 13 15 18 20 21 20 17 14 12 11 10 10 11 12 12 11 11 11 11 11 10 8 7
9 9 9 8 7 6 6 8 10 11 12 12 12 12 12 11 10 11 12 14 14 14 12 10 9 10 11 13 14 15 16 17 17 17 17 16 16 16 16 15 15 15 16 16 17 18 17 16 16 17 18 18 17 16 17 17 16 16 16 15 14 14 15 14 13 14 17 20 21 19 16 14 12 10 10 11 12 12 12 11 11 11 11 8 8
9 9 9 7 6 7 9 11 12 12 13 13 12 12 11 10 11 12 13 13 12 10 10 10 11 13 14 15 16 17 17 16 15 15 15 14 15 15 15 16 16 16 16 16 16 16 15 15 18 21 20 18 16 16 17 18 18 18 18 16 15 16 18 19 16 13 12 16 21 23 21 18 16 13 10 10 11 12 12 12 10 10 11 9 7
10 9 7 7 8 10 12 12 12 13 13 12 11 11 11 13 14 13 12 11 10 10 13 14 15 16 16 16 17 16 14 14 14 14 14 14 15 16 17 18 18 16 16 15 14 14 14 16 20 22 20 16 14 14 16 17 18 19 19 17 15 15 18 21 22 19 14 12 15 20 22 20 19 17 14 11 10 10 11 12 11 10 10 9 7
9 7 7 9 11 12 12 13 13 12 11 10 11 12 14 14 13 11 10 11 12 14 16 15 15 16 16 16 16 14 14 15 15 14 12 11 12 14 16 17 16 14 13 13 13 14 16 17 17 17 15 12 11 12 13 14 16 18 18 16 14 15 19 21 23 22 19 13 12 15 19 21 20 18 16 13 10 9 10 10 10 9 9 9 8
7 8 10 12 12 12 12 13 12 10 10 12 14 14 13 11 10 12 14 15 15 15 14 14 15 16 15 15 15 15 16 16 15 12 9 9 11 15 17 16 14 13 12 12 14 15 15 14 12 11 11 11 12 13 13 13 14 16 17 17 16 16 18 21 23 24 20 14 11 12 15 20 21 19 18 16 12 10 9 9 9 8 8 9 9
8 11 12 12 11 12 12 11 10 11 13 14 13 11 11 12 14 15 15 15 15 14 14 16 16 15 14 15 16 16 17 16 14 11 9 9 13 18 19 16 13 13 13 13 15 15 13 10 10 11 12 14 16 17 15 13 13 15 16 17 17 17 19 21 23 25 21 15 10 10 13 18 21 20 19 17 14 12 11 10 9 8 8 9 10
12 12 11 11 12 12 11 10 12 14 14 12 10 10 13 16 16 14 13 12 13 14 15 15 15 15 16 16 16 16 15 14 14 12 12 13 16 20 21 17 13 13 14 16 17 15 13 13 14 16 17 18 20 20 16 13 14 16 17 17 17 18 21 22 22 22 20 15 10 9 13 17 20 21 20 18 15 14 13 11 10 9 9 10 11
12 11 11 12 11 11 11 12 14 13 10 9 11 14 15 14 12 11 12 11 11 12 13 14 14 15 16 15 15 16 16 17 18 18 19 21 23 23 21 17 14 14 15 16 18 17 17 19 19 19 20 20 19 17 15 14 16 18 18 18 18 19 21 24 22 19 17 17 15 12 13 18 21 21 20 17 15 14 14 14 12 11 11 11 12
11 11 12 11 10 11 13 14 13 10 9 12 15 16 14 12 9 8 8 9 10 12 13 13 13 14 15 16 17 18 20 21 21 20 21 22 23 24 21 18 17 18 18 18 19 19 19 20 20 19 19 18 17 17 17 18 19 19 17 17 18 19 21 21 21 18 18 23 25 19 15 18 22 21 19 17 15 14 14 14 13 12 12 13 13
12 12 10 10 11 14 15 12 9 10 13 16 15 13 12 11 9 8 7 7 7 10 12 13 14 16 17 19 20 21 20 18 17 17 19 19 19 21 21 18 17 20 21 21 20 19 19 19 18 18 17 16 16 19 20 21 21 19 17 17 19 22 22 19 20 22 23 27 29 25 20 20 22 20 18 16 15 14 13 12 13 12 11 12 14
12 10 9 11 14 15 12 9 9 13 15 15 13 12 11 10 9 8 7 7 7 9 11 13 16 20 23 24 24 21 18 16 15 16 16 17 19 22 21 19 20 22 21 19 16 16 18 18 17 16 15 14 16 17 18 20 21 19 18 19 20 22 23 20 21 24 25 28 33 32 27 23 22 19 16 15 14 13 12 11 11 12 12 12 13
10 9 11 14 15 12 9 9 12 15 14 12 12 12 10 9 8 7 7 8 9 10 11 14 20 26 29 27 23 19 17 17 16 16 17 21 27 29 26 22 21 19 15 13 14 17 18 17 15 14 13 13 15 15 15 18 19 19 20 21 20 20 22 21 21 22 23 26 31 30 24 21 20 16 15 16 15 13 12 12 12 12 12 12 12
9 11 14 15 13 10 10 12 14 13 12 12 12 10 9 9 8 7 7 8 8 8 11 18 26 31 30 26 22 21 21 20 19 19 22 26 33 36 33 26 20 14 10 11 14 17 17 15 13 13 13 13 13 15 16 17 19 20 21 22 21 21 20 18 18 21 24 24 24 22 19 18 18 15 14 16 16 14 12 12 12 13 14 13 13
11 14 15 12 10 10 12 14 13 12 12 12 10 9 10 8 7 7 7 6 6 8 14 23 30 30 27 24 22 20 20 19 19 18 18 21 28 33 30 24 18 13 10 13 17 16 15 14 12 12 13 14 14 16 18 18 19 19 17 17 19 20 20 20 20 21 22 21 18 17 18 17 16 16 16 15 14 14 14 15 14 13 13 13 15
14 15 12 9 10 11 13 13 12 12 12 11 10 10 10 7 7 8 6 5 5 8 18 31 33 25 19 21 22 18 15 15 15 14 13 14 19 22 21 18 17 17 15 16 17 15 14 15 14 13 14 15 16 18 18 17 20 20 17 16 19 19 19 22 22 19 19 20 18 17 18 17 15 16 17 16 15 14 14 16 16 14 13 13 15
15 13 9 9 11 12 13 13 12 12 11 10 10 11 8 8 8 7 5 5 5 10 26 37 30 16 13 19 21 17 12 12 13 15 16 17 16 16 17 17 17 17 17 16 14 14 15 15 14 14 15 14 15 18 18 15 18 21 19 18 20 18 14 15 19 20 20 20 19 17 16 15 15 15 16 16 15 14 14 16 16 14 15 15 14
14 10 8 10 11 12 13 13 11 12 11 10 11 10 8 9 8 5 5 5 3 16 37 38 19 11 17 23 23 18 10 7 10 12 17 22 20 15 16 17 14 13 15 15 14 15 16 16 16 17 17 15 14 16 16 14 15 19 18 16 17 18 17 18 21 22 20 18 16 13 13 15 15 15 16 16 14 13 15 16 15 14 14 15 14
11 8 9 11 12 13 14 12 11 12 11 11 11 9 8 9 6 4 6 4 3 25 46 34 10 9 17 20 25 22 9 5 8 6 10 27 30 17 11 13 12 13 17 17 17 19 18 17 18 17 15 16 16 13 13 15 16 17 17 14 14 16 17 17 17 16 16 18 16 11 12 18 18 14 13 14 15 15 17 17 16 16 16 15 15
8 7 10 13 13 13 13 11 11 12 11 11 12 9 8 9 6 3 6 2 5 31 51 32 7 6 10 13 24 28 16 10 6 -7 -2 26 38 24 13 13 13 16 18 16 16 20 18 15 17 17 15 17 16 11 11 16 15 12 13 16 18 19 18 16 15 14 16 19 15 8 12 22 24 18 16 16 16 17 18 18 19 20 19 16 16
8 9 12 14 13 13 12 11 12 13 11 11 12 9 8 9 5 3 5 3 8 35 51 30 5 4 9 14 26 30 22 14 4 -8 3 30 34 20 18 20 15 13 14 11 13 20 18 14 16 17 14 15 15 12 14 19 19 19 21 21 21 21 20 17 16 17 19 19 14 11 16 23 22 19 19 20 19 18 17 17 19 19 17 15 15
8 10 14 15 13 11 11 12 13 13 11 12 12 9 9 9 5 3 4 2 13 40 50 25 3 7 14 16 23 26 20 15 9 3 15 34 30 16 18 23 16 11 14 17 18 19 17 15 16 16 15 17 17 14 14 17 19 21 20 16 14 17 19 17 14 15 17 16 14 16 20 21 18 17 18 18 20 21 18 17 18 17 14 14 12
10 13 15 14 11 10 12 12 12 12 12 12 11 10 9 7 4 3 3 3 19 45 45 17 3 10 12 12 22 25 15 13 15 4 4 25 39 30 21 20 18 16 21 25 21 17 15 16 15 13 11 14 15 13 12 14 15 14 13 13 13 14 17 19 18 19 22 22 17 14 17 18 19 21 20 16 15 17 17 16 17 15 12 12 12
12 15 15 12 10 11 13 13 12 12 13 13 11 10 10 6 3 4 2 3 24 48 39 10 4 12 8 10 28 27 6 5 15 2 -6 22 48 38 20 19 22 20 21 22 18 14 16 16 13 10 8 9 13 18 17 14 13 13 15 18 16 9 10 17 19 19 26 28 18 8 11 19 22 23 24 22 19 18 17 14 14 14 13 14 17
14 15 12 9 10 12 13 13 13 13 13 13 11 11 10 6 2 4 3 4 25 47 35 8 5 12 7 12 32 28 3 2 12 2 -1 29 48 32 17 22 23 17 18 20 14 13 18 17 12 13 13 9 10 16 19 18 18 17 15 16 13 8 10 16 13 10 20 31 26 14 13 20 22 21 25 26 24 22 21 19 18 20 21 19 18
15 13 10 9 11 13 14 13 13 13 14 13 11 11 10 5 2 4 3 4 23 44 34 10 5 11 10 15 30 27 9 6 9 2 10 40 48 25 13 23 23 13 14 19 15 13 18 16 12 14 17 13 8 10 13 16 15 10 6 8 10 10 12 16 12 6 11 27 36 32 24 21 19 19 20 22 22 22 23 22 19 18 18 14 11
14 10 9 11 13 14 14 14 13 13 14 12 10 11 10 5 2 5 4 4 20 41 36 13 4 11 15 16 21 19 11 11 12 5 11 33 38 20 10 18 23 16 12 15 16 16 15 13 11 11 11 9 8 8 10 13 12 8 6 8 12 18 23 26 22 16 13 19 29 30 22 19 20 15 9 13 20 20 16 14 14 12 12 14 14
11 8 10 13 14 14 15 14 13 14 14 11 10 12 11 5 2 5 5 3 15 36 40 20 4 9 20 20 15 12 11 13 14 9 5 16 32 33 22 15 17 18 15 13 14 13 12 11 12 10 8 9 10 9 11 12 12 13 12 8 6 13 22 24 23 23 24 25 29 26 17 18 25 21 12 16 25 23 18 20 20 15 14 20 21
Height
5897 5897 5897 5897 5897 5896 5896 5896 5895 5895 5895 5894 5894 5893 5893 5892 5892 5891 5891 5890 5890 5889 5888 5888 5887 5886 5886 5885 5884 5884 5883 5882 5881 5881 5880 5879 5878 5878 5877 5876 5875 5875 5874 5873 5872 5871 5870 5869 5869 5868 5868 5867 5867 5866 5866 5865 5865 5864 5864 5864 5864 5864 5864 5864 5864 5863 5862 5861 5862 5863 5864 5865 5867 5868 5869 5871 5872 5872 5873 5874 5875 5876 5877 5877 5878
5895 5895 5895 5895 5895 5894 5894 5894 5893 5893 5892 5892 5891 5891 5890 5890 5889 5889 5888 5887 5887 5886 5885 5885 5884 5883 5882 5881 5881 5880 5879 5878 5877 5877 5876 5875 5874 5874 5873 5872 5871 5870 5869 5869 5868 5867 5866 5865 5864 5863 5863 5863 5862 5862 5862 5861 5861 5860 5860 5860 5860 5860 5860 5860 5861 5860 5859 5857 5857 5858 5859 5861 5862 5863 5865 5866 5867 5868 5869 5870 5871 5872 5873 5874 5875
5893 5893 5893 5893 5892 5892 5892 5891 5891 5890 5890 5889 5888 5888 5887 5887 5886 5885 5885 5884 5884 5883 5882 5881 5880 5879 5878 5877 5876 5876 5875 5874 5873 5872 5871 5871 5870 5869 5868 5867 5867 5866 5865 5864 5863 5863 5862 5861 5860 5859 5858 5858 5858 5857 5857 5856 5856 5856 5856 5856 5856 5856 5856 5857 5857 5857 5856 5854 5853 5854 5854 5856 5858 5859 5860 5861 5862 5864 5865 5866 5866 5867 5869 5870 5871
5891 5891 5890 5890 5890 5890 5889 5889 5888 5888 5887 5886 5885 5885 5884 5883 5883 5882 5882 5881 5880 5879 5878 5877 5876 5875 5874 5873 5872 5871 5870 5869 5868 5867 5866 5865 5865 5864 5863 5862 5862 5861 5860 5859 5858 5857 5857 5857 5856 5855 5854 5853 5853 5853 5852 5852 5851 5852 5852 5852 5852 5852 5852 5853 5853 5853 5853 5851 5850 5849 5849 5851 5853 5853 5854 5856 5857 5859 5860 5862 5862 5863 5864 5866 5868
5888 5888 5888 5888 5887 5887 5886 5886 5885 5885 5884 5883 5882 5881 5880 5880 5879 5879 5878 5877 5876 5875 5874 5873 5872 5870 5869 5868 5867 5866 5865 5864 5863 5862 5861 5860 5859 5858 5858 5857 5856 5855 5855 5854 5853 5852 5852 5851 5851 5850 5850 5849 5848 5847 5847 5847 5847 5847 5847 5847 5848 5848 5848 5849 5849 5849 5849 5848 5847 5845 5845 5846 5847 5848 5849 5850 5852 5854 5855 5857 5858 5859 5859 5861 5863
5886 5885 5885 5885 5885 5884 5883 5883 5882 5881 5880 5879 5878 5878 5877 5876 5875 5875 5874 5873 5871 5870 5869 5868 5867 5865 5864 5863 5862 5861 5860 5859 5858 5857 5856 5855 5854 5853 5852 5851 5850 5849 5849 5848 5847 5846 5846 5845 5845 5845 5844 5844 5843 5843 5842 5842 5842 5842 5842 5842 5842 5843 5843 5844 5845 5845 5845 5844 5843 5842 5842 5842 5842 5843 5844 5845 5846 5848 5850 5852 5853 5854 5854 5856 5858
5883 5883 5882 5882 5882 5881 5880 5879 5878 5877 5876 5875 5875 5874 5873 5872 5871 5870 5869 5868 5867 5865 5864 5863 5862 5860 5859 5858 5857 5856 5855 5854 5853 5852 5850 5849 5848 5847 5846 5845 5844 5843 5842 5842 5841 5840 5840 5839 5839 5838 5838 5838 5838 5837 5837 5837 5836 5836 5836 5837 5837 5838 5838 5839 5840 5840 5840 5840 5839 5839 5839 5838 5838 5839 5839 5839 5841 5843 5844 5845 5847 5847 5848 5850 5852
5880 5880 5879 5879 5878 5877 5876 5876 5874 5873 5872 5871 5870 5869 5868 5867 5866 5865 5864 5863 5861 5860 5859 5858 5856 5855 5853 5852 5851 5850 5849 5848 5847 5846 5845 5843 5842 5841 5840 5839 5838 5837 5836 5835 5834 5834 5833 5833 5832 5832 5832 5831 5831 5832 5831 5831 5831 5831 5831 5831 5831 5832 5833 5834 5835 5835 5835 5835 5835 5835 5835 5835 5834 5834 5834 5835 5836 5837 5838 5838 5840 5842 5843 5844 5846
5877 5877 5876 5875 5874 5873 5872 5871 5870 5869 5868 5867 5866 5865 5864 5862 5861 5860 5859 5857 5856 5855 5853 5852 5850 5849 5848 5846 5845 5844 5843 5841 5840 5839 5838 5837 5836 5835 5834 5833 5832 5831 5830 5829 5828 5827 5827 5826 5826 5825 5825 5825 5825 5825 5825 5825 5825 5825 5825 5825 5826 5826 5827 5828 5829 5830 5830 5830 5831 5830 5831 5831 5831 5830 5830 5830 5831 5831 5831 5832 5834 5836 5836 5837 5840
5874 5873 5873 5872 5871 5869 5868 5867 5866 5865 5864 5863 5862 5861 5859 5858 5857 5855 5854 5852 5851 5849 5847 5846 5844 5843 5841 5840 5838 5837 5835 5834 5833 5832 5831 5830 5829 5828 5827 5826 5825 5824 5823 5823 5822 5821 5820 5819 5819 5819 5818 5818 5818 5818 5818 5818 5819 5819 5819 5820 5820 5821 5821 5822 5823 5824 5824 5825 5825 5826 5826 5826 5827 5826 5826 5826 5826 5826 5826 5826 5829 5830 5830 5832 5836
5871 5870 5869 5868 5867 5865 5864 5863 5862 5861 5860 5859 5857 5856 5855 5853 5852 5850 5848 5847 5845 5843 5841 5840 5838 5836 5835 5833 5831 5830 5828 5827 5826 5825 5824 5823 5822 5821 5820 5819 5818 5818 5817 5816 5815 5814 5813 5813 5812 5812 5812 5811 5811 5811 5811 5811 5812 5812 5813 5813 5814 5814 5815 5816 5816 5817 5818 5819 5820 5820 5821 5821 5822 5822 5822 5821 5821 5821 5821 5821 5823 5825 5825 5828 5831
5868 5866 5865 5864 5863 5861 5860 5859 5858 5857 5856 5854 5853 5851 5850 5848 5847 5845 5843 5841 5839 5837 5835 5834 5832 5830 5829 5827 5825 5824 5822 5821 5820 5819 5818 5817 5816 5815 5814 5812 5812 5811 5810 5809 5808 5807 5807 5806 5805 5805 5805 5804 5804 5804 5804 5804 5805 5806 5806 5807 5807 5808 5809 5809 5810 5811 5812 5813 5814 5815 5815 5816 5816 5817 5817 5817 5816 5817 5816 5817 5818 5819 5820 5823 5825
5864 5863 5862 5860 5859 5858 5856 5855 5854 5853 5851 5850 5848 5846 5845 5843 5842 5840 5838 5836 5834 5832 5830 5828 5827 5825 5823 5822 5820 5818 5816 5815 5814 5813 5812 5811 5810 5809 5808 5806 5805 5804 5803 5802 5801 5800 5800 5799 5799 5798 5798 5797 5797 5797 5797 5797 5798 5799 5799 5800 5800 5801 5802 5803 5804 5804 5805 5806 5808 5809 5809 5810 5811 5811 5812 5812 5812 5812 5812 5812 5813 5813 5815 5817 5820
5860 5859 5858 5856 5855 5854 5853 5851 5850 5848 5847 5845 5843 5842 5840 5838 5837 5835 5833 5831 5829 5827 5825 5823 5821 5819 5817 5816 5815 5813 5811 5810 5808 5807 5806 5805 5803 5802 5801 5800 5798 5797 5797 5795 5794 5793 5792 5792 5791 5791 5790 5790 5790 5790 5789 5790 5791 5791 5791 5793 5793 5793 5795 5796 5797 5797 5798 5799 5801 5802 5803 5803 5804 5805 5805 5806 5807 5807 5807 5808 5808 5809 5810 5812 5814
5857 5855 5854 5853 5851 5850 5849 5847 5846 5844 5842 5841 5839 5838 5836 5834 5832 5830 5828 5826 5824 5822 5820 5818 5816 5814 5812 5810 5809 5807 5805 5803 5802 5801 5799 5798 5797 5796 5794 5793 5792 5790 5789 5789 5787 5786 5785 5785 5784 5783 5783 5782 5782 5782 5782 5782 5783 5783 5784 5785 5785 5785 5787 5789 5789 5790 5791 5792 5794 5796 5796 5797 5798 5799 5799 5800 5801 5802 5801 5802 5804 5804 5805 5807 5808
5853 5852 5850 5849 5848 5846 5845 5843 5841 5840 5838 5837 5835 5833 5831 5829 5827 5825 5823 5821 5818 5816 5814 5812 5810 5808 5806 5804 5803 5801 5799 5797 5796 5794 5793 5791 5790 5789 5787 5786 5785 5783 5782 5781 5780 5779 5778 5777 5777 5776 5775 5774 5774 5774 5774 5774 5775 5775 5776 5777 5777 5778 5779 5780 5781 5782 5784 5785 5786 5788 5790 5790 5791 5792 5793 5793 5795 5796 5796 5796 5798 5800 5800 5802 5803
5850 5848 5846 5845 5844 5842 5840 5839 5837 5836 5834 5833 5831 5829 5827 5824 5822 5820 5818 5816 5813 5811 5809 5807 5805 5803 5801 5799 5797 5795 5793 5791 5790 5788 5786 5784 5783 5782 5780 5779 5777 5776 5775 5773 5772 5771 5770 5770 5769 5768 5767 5767 5766 5766 5766 5767 5767 5767 5768 5769 5769 5770 5772 5772 5772 5775 5776 5777 5779 5781 5782 5784 5784 5786 5787 5787 5788 5789 5790 5791 5793 5793 5794 5796 5798
5846 5844 5843 5841 5840 5838 5836 5835 5833 5832 5830 5828 5826 5824 5822 5820 5817 5815 5813 5811 5809 5806 5804 5802 5799 5797 5795 5793 5791 5789 5787 5785 5783 5781 5780 5778 5776 5775 5773 5771 5770 5768 5767 5766 5765 5764 5763 5762 5761 5760 5759 5759 5758 5757 5758 5759 5759 5759 5760 5760 5761 5762 5763 5764 5765 5767 5768 5769 5771 5773 5775 5776 5777 5778 5780 5781 5781 5782 5784 5786 5787 5786 5788 5790 5792
5842 5840 5839 5837 5835 5834 5833 5831 5830 5828 5826 5824 5822 5819 5817 5815 5813 5811 5808 5806 5804 5801 5798 5796 5794 5791 5788 5787 5784 5782 5780 5778 5776 5774 5772 5770 5769 5767 5765 5764 5762 5761 5759 5758 5757 5756 5754 5754 5753 5752 5751 5751 5751 5750 5749 5750 5751 5751 5751 5752 5753 5754 5755 5755 5757 5758 5759 5761 5763 5765 5767 5768 5769 5771 5773 5774 5775 5776 5778 5780 5780 5780 5782 5784 5786
5838 5836 5835 5833 5831 5830 5829 5827 5825 5823 5821 5819 5817 5815 5813 5810 5808 5806 5803 5801 5798 5795 5793 5791 5788 5785 5782 5780 5778 5775 5773 5771 5769 5767 5765 5763 5761 5760 5758 5756 5754 5753 5752 5750 5749 5747 5746 5745 5744 5743 5743 5743 5743 5742 5742 5741 5742 5742 5742 5743 5745 5746 5746 5747 5749 5750 5751 5753 5754 5756 5758 5760 5762 5763 5765 5766 5768 5769 5771 5773 5774 5774 5776 5778 5780
5834 5833 5831 5829 5828 5826 5825 5823 5821 5819 5817 5815 5812 5810 5808 5805 5803 5800 5798 5795 5793 5790 5787 5785 5782 5780 5777 5774 5771 5768 5766 5764 5762 5760 5758 5755 5753 5752 5750 5748 5746 5745 5744 5742 5741 5739 5738 5737 5735 5734 5735 5735 5734 5734 5733 5733 5733 5734 5734 5735 5736 5737 5737 5738 5740 5741 5743 5745 5746 5748 5750 5752 5754 5755 5757 5759 5761 5762 5764 5766 5767 5768 5770 5772 5775
5831 5829 5827 5826 5824 5822 5820 5818 5817 5814 5812 5810 5807 5805 5802 5800 5797 5795 5792 5790 5787 5784 5781 5778 5776 5773 5770 5767 5765 5762 5759 5757 5754 5752 5750 5748 5746 5744 5742 5740 5738 5736 5735 5734 5732 5731 5730 5728 5727 5726 5726 5726 5726 5725 5725 5724 5725 5725 5726 5727 5727 5728 5729 5729 5731 5732 5734 5736 5737 5739 5742 5744 5745 5747 5749 5751 5753 5754 5757 5759 5760 5761 5764 5766 5769
5827 5825 5824 5822 5820 5818 5816 5814 5812 5810 5807 5805 5802 5800 5797 5794 5791 5789 5786 5784 5781 5778 5775 5772 5769 5767 5764 5761 5758 5755 5752 5749 5747 5744 5742 5740 5738 5736 5734 5732 5730 5728 5727 5725 5724 5723 5722 5721 5720 5719 5718 5718 5718 5717 5717 5716 5717 5717 5718 5718 5719 5719 5720 5721 5722 5723 5725 5727 5729 5731 5733 5735 5737 5739 5741 5743 5745 5747 5749 5752 5753 5756 5758 5760 5762
5823 5822 5820 5818 5816 5814 5812 5810 5807 5804 5802 5800 5797 5795 5792 5789 5786 5783 5781 5778 5775 5772 5769 5766 5763 5760 5758 5754 5751 5748 5745 5742 5739 5737 5735 5732 5730 5728 5726 5724 5722 5720 5719 5718 5717 5716 5715 5714 5713 5712 5711 5710 5710 5709 5709 5709 5709 5709 5709 5710 5710 5711 5712 5713 5714 5715 5716 5718 5720 5722 5725 5727 5729 5731 5733 5735 5737 5740 5742 5745 5747 5750 5752 5753 5755
5820 5818 5816 5814 5813 5810 5808 5805 5802 5800 5797 5794 5792 5789 5787 5784 5781 5778 5775 5772 5769 5766 5763 5760 5757 5754 5751 5748 5744 5741 5738 5735 5732 5730 5728 5725 5723 5721 5719 5717 5715 5713 5711 5710 5709 5708 5707 5707 5706 5705 5704 5702 5702 5701 5701 5701 5701 5701 5701 5702 5702 5703 5704 5706 5706 5707 5708 5709 5711 5714 5717 5719 5721 5723 5725 5727 5730 5733 5735 5738 5741 5743 5745 5747 5749
5816 5814 5813 5811 5809 5806 5803 5800 5798 5795 5792 5789 5787 5784 5782 5779 5776 5772 5769 5766 5763 5760 5757 5753 5750 5747 5744 5741 5738 5735 5731 5728 5726 5723 5721 5718 5716 5714 5712 5710 5707 5706 5704 5702 5701 5700 5700 5700 5700 5698 5697 5695 5694 5693 5694 5693 5693 5693 5693 5693 5694 5695 5696 5697 5698 5699 5700 5702 5703 5706 5708 5710 5712 5715 5717 5720 5723 5726 5729 5731 5734 5736 5739 5741 5743
5812 5811 5809 5807 5804 5801 5799 5796 5793 5790 5787 5784 5782 5779 5776 5773 5770 5767 5764 5761 5757 5754 5751 5747 5744 5741 5738 5734 5731 5728 5725 5722 5719 5717 5714 5711 5708 5706 5704 5702 5700 5699 5697 5695 5694 5693 5693 5693 5692 5691 5690 5689 5687 5686 5686 5686 5685 5685 5685 5685 5686 5687 5688 5689 5690 5691 5693 5695 5696 5698 5700 5701 5704 5707 5710 5713 5716 5719 5721 5724 5727 5729 5732 5735 5737
5809 5807 5805 5802 5800 5797 5794 5792 5789 5786 5783 5780 5777 5774 5771 5767 5764 5761 5757 5754 5751 5748 5745 5741 5738 5734 5731 5728 5725 5722 5719 5716 5713 5710 5708 5705 5702 5700 5697 5695 5693 5691 5690 5688 5687 5687 5686 5686 5684 5684 5683 5683 5681 5680 5679 5679 5678 5678 5678 5678 5678 5679 5680 5681 5682 5683 5685 5687 5689 5691 5692 5693 5696 5699 5702 5705 5709 5712 5714 5717 5720 5723 5725 5728 5731
5805 5803 5801 5798 5795 5792 5790 5787 5785 5782 5779 5775 5772 5768 5765 5762 5759 5755 5752 5748 5745 5742 5739 5735 5732 5728 5725 5721 5718 5716 5713 5710 5707 5704 5702 5699 5697 5694 5692 5689 5687 5685 5683 5682 5681 5681 5680 5678 5677 5677 5676 5676 5675 5674 5673 5672 5671 5671 5671 5671 5671 5672 5672 5673 5674 5675 5677 5680 5682 5684 5685 5687 5689 5691 5694 5697 5701 5704 5707 5710 5714 5717 5719 5722 5725
5801 5799 5796 5793 5791 5788 5785 5783 5780 5777 5774 5771 5767 5764 5760 5757 5753 5750 5747 5744 5740 5736 5733 5730 5726 5722 5719 5715 5711 5708 5706 5704 5701 5698 5695 5693 5690 5688 5686 5683 5681 5679 5678 5677 5676 5675 5674 5672 5671 5670 5670 5669 5669 5668 5667 5666 5665 5665 5665 5665 5665 5665 5665 5666 5668 5669 5671 5673 5675 5677 5679 5681 5682 5685 5687 5691 5694 5698 5701 5704 5707 5710 5713 5716 5719
5797 5794 5792 5789 5787 5784 5781 5779 5776 5773 5770 5767 5764 5760 5756 5753 5749 5746 5743 5740 5736 5732 5728 5724 5720 5716 5713 5709 5705 5702 5699 5697 5694 5691 5688 5686 5684 5682 5679 5677 5674 5673 5672 5672 5671 5669 5668 5667 5666 5664 5664 5663 5663 5662 5662 5661 5660 5660 5659 5659 5658 5658 5659 5660 5661 5662 5664 5667 5669 5670 5672 5674 5676 5679 5681 5684 5688 5691 5694 5698 5701 5705 5708 5710 5713
5793 5790 5787 5785 5783 5780 5777 5774 5772 5769 5766 5762 5759 5756 5753 5750 5746 5742 5738 5735 5732 5728 5723 5719 5715 5711 5707 5703 5700 5696 5693 5690 5687 5684 5682 5680 5678 5675 5673 5670 5669 5668 5667 5666 5666 5664 5663 5662 5661 5659 5658 5658 5657 5657 5656 5656 5655 5654 5653 5653 5653 5652 5653 5654 5655 5656 5658 5660 5661 5663 5666 5668 5671 5673 5676 5679 5682 5685 5688 5692 5696 5699 5702 5704 5707
5788 5786 5784 5781 5779 5776 5773 5770 5767 5765 5762 5759 5755 5752 5749 5746 5743 5739 5735 5731 5727 5722 5718 5714 5710 5705 5701 5697 5694 5690 5687 5684 5681 5678 5676 5673 5671 5669 5667 5664 5663 5663 5662 5661 5660 5659 5658 5657 5656 5654 5654 5653 5652 5652 5651 5650 5649 5649 5648 5648 5647 5647 5648 5649 5649 5650 5652 5654 5655 5656 5659 5662 5665 5667 5670 5673 5676 5680 5683 5686 5689 5692 5695 5698 5701
5785 5782 5780 5778 5775 5772 5769 5767 5764 5761 5758 5755 5752 5749 5746 5742 5739 5736 5732 5728 5723 5719 5714 5710 5706 5701 5696 5692 5688 5685 5681 5678 5676 5673 5671 5668 5666 5664 5662 5659 5658 5658 5658 5657 5655 5654 5653 5652 5651 5650 5650 5649 5648 5647 5646 5645 5645 5644 5643 5643 5643 5643 5643 5644 5645 5646 5647 5648 5649 5650 5653 5656 5659 5662 5665 5668 5671 5674 5678 5681 5683 5686 5690 5693 5695
5781 5779 5777 5774 5771 5768 5766 5763 5760 5757 5754 5751 5748 5745 5742 5739 5735 5732 5728 5724 5720 5716 5711 5706 5701 5697 5692 5688 5684 5680 5677 5674 5672 5669 5666 5664 5661 5659 5657 5655 5654 5654 5654 5653 5652 5651 5649 5648 5648 5647 5646 5645 5644 5643 5642 5641 5641 5640 5639 5639 5638 5638 5639 5639 5640 5641 5642 5643 5645 5646 5648 5651 5654 5657 5660 5663 5666 5670 5673 5675 5678 5681 5684 5687 5689
5778 5776 5773 5770 5768 5765 5762 5759 5757 5754 5751 5748 5745 5742 5739 5736 5732 5728 5724 5720 5716 5711 5707 5702 5697 5692 5688 5684 5680 5677 5674 5671 5668 5665 5663 5660 5657 5655 5653 5651 5651 5651 5650 5649 5648 5647 5646 5645 5644 5643 5643 5642 5641 5640 5639 5638 5638 5637 5636 5635 5635 5634 5635 5635 5636 5637 5637 5639 5640 5642 5644 5647 5650 5653 5656 5659 5662 5665 5667 5670 5673 5676 5678 5681 5683
5774 5772 5769 5767 5764 5762 5759 5756 5753 5751 5748 5745 5742 5739 5736 5732 5729 5725 5721 5717 5712 5707 5703 5698 5693 5689 5685 5681 5677 5674 5671 5668 5666 5663 5660 5657 5654 5651 5649 5649 5648 5648 5647 5647 5645 5644 5643 5642 5641 5640 5640 5639 5638 5637 5637 5636 5635 5634 5633 5633 5632 5632 5632 5633 5634 5634 5635 5636 5637 5639 5642 5644 5647 5650 5652 5655 5657 5659 5662 5665 5668 5671 5673 5676 5678
5771 5768 5766 5764 5761 5759 5756 5753 5750 5748 5745 5742 5739 5736 5733 5729 5726 5722 5718 5714 5709 5704 5699 5694 5689 5686 5682 5679 5675 5672 5669 5666 5663 5660 5657 5654 5652 5649 5648 5647 5646 5646 5645 5644 5643 5642 5641 5640 5639 5638 5637 5636 5636 5635 5634 5633 5632 5631 5631 5631 5630 5630 5630 5631 5631 5632 5633 5634 5635 5637 5640 5642 5644 5646 5649 5651 5654 5656 5657 5660 5663 5666 5668 5671 5673
5768 5765 5763 5761 5758 5756 5753 5750 5748 5745 5742 5740 5737 5733 5730 5727 5723 5720 5716 5711 5706 5701 5696 5690 5686 5683 5680 5677 5674 5671 5668 5665 5662 5660 5656 5653 5651 5649 5647 5646 5645 5644 5643 5642 5640 5639 5638 5638 5637 5636 5635 5634 5634 5633 5631 5630 5630 5629 5628 5628 5629 5629 5629 5629 5629 5630 5632 5632 5633 5634 5637 5639 5641 5643 5646 5648 5651 5653 5654 5656 5659 5661 5664 5666 5669
5765 5763 5761 5758 5756 5753 5750 5748 5745 5743 5740 5737 5734 5731 5728 5724 5721 5717 5713 5709 5704 5698 5693 5688 5684 5681 5678 5675 5672 5669 5667 5664 5662 5659 5656 5653 5650 5648 5646 5645 5643 5642 5641 5640 5639 5637 5637 5636 5635 5634 5634 5633 5632 5631 5630 5629 5629 5628 5627 5627 5628 5628 5628 5628 5628 5629 5630 5630 5631 5632 5635 5636 5638 5640 5642 5645 5647 5649 5651 5653 5655 5657 5660 5663 5665
5763 5760 5758 5756 5753 5750 5748 5746 5743 5740 5738 5735 5732 5729 5726 5722 5719 5715 5711 5706 5702 5696 5690 5685 5682 5679 5676 5672 5670 5667 5665 5663 5660 5658 5655 5652 5649 5647 5645 5644 5642 5641 5639 5638 5637 5636 5635 5635 5634 5633 5633 5632 5631 5630 5629 5628 5628 5628 5627 5627 5627 5628 5627 5627 5627 5628 5628 5629 5629 5631 5632 5634 5635 5637 5639 5641 5643 5644 5646 5649 5651 5653 5656 5658 5660
5760 5758 5755 5753 5750 5748 5746 5743 5741 5738 5735 5733 5730 5727 5724 5721 5717 5713 5709 5704 5699 5694 5688 5683 5680 5678 5674 5671 5668 5665 5663 5661 5658 5656 5654 5651 5648 5646 5644 5642 5641 5640 5638 5637 5636 5635 5634 5634 5633 5633 5632 5631 5630 5629 5628 5627 5627 5627 5626 5626 5626 5627 5627 5627 5627 5627 5627 5627 5628 5629 5629 5631 5633 5634 5636 5637 5639 5640 5642 5644 5646 5649 5652 5654 5657
5758 5755 5753 5751 5748 5746 5744 5741 5739 5736 5733 5731 5728 5725 5722 5719 5715 5711 5707 5702 5697 5691 5686 5682 5680 5676 5673 5670 5667 5664 5662 5660 5657 5655 5652 5649 5646 5644 5643 5641 5640 5639 5637 5636 5635 5634 5633 5633 5632 5632 5632 5631 5629 5629 5628 5627 5627 5626 5625 5625 5625 5626 5626 5627 5626 5626 5625 5625 5626 5627 5627 5628 5630 5631 5633 5634 5635 5637 5638 5640 5642 5645 5648 5650 5653
5755 5753 5751 5748 5746 5744 5742 5739 5737 5734 5731 5729 5726 5723 5720 5717 5714 5710 5705 5700 5695 5689 5685 5682 5679 5676 5673 5670 5666 5664 5661 5659 5657 5654 5651 5648 5646 5643 5642 5640 5639 5638 5636 5635 5634 5633 5633 5632 5632 5631 5631 5630 5629 5629 5628 5628 5627 5626 5625 5626 5626 5626 5626 5626 5625 5625 5624 5624 5625 5625 5626 5626 5627 5629 5630 5631 5632 5634 5635 5637 5639 5642 5644 5647 5650
5753 5751 5749 5746 5744 5742 5740 5737 5735 5732 5730 5727 5725 5722 5719 5716 5712 5708 5704 5699 5693 5688 5683 5681 5678 5675 5673 5670 5666 5663 5661 5659 5657 5653 5650 5647 5645 5643 5641 5639 5638 5637 5636 5635 5634 5633 5633 5632 5632 5631 5631 5631 5630 5629 5629 5628 5627 5627 5627 5627 5627 5627 5626 5626 5624 5623 5623 5623 5623 5624 5624 5624 5625 5626 5628 5629 5630 5631 5633 5635 5637 5639 5641 5644 5647
5751 5749 5747 5744 5742 5740 5737 5735 5733 5731 5728 5726 5723 5721 5718 5714 5711 5707 5702 5698 5692 5687 5683 5680 5678 5675 5672 5669 5666 5663 5661 5659 5656 5653 5650 5647 5643 5641 5640 5639 5637 5636 5635 5634 5634 5633 5633 5633 5632 5632 5632 5632 5631 5630 5630 5629 5629 5629 5629 5628 5628 5627 5626 5625 5624 5623 5622 5622 5622 5623 5623 5623 5624 5624 5626 5627 5628 5630 5632 5633 5636 5638 5640 5642 5644
5749 5747 5745 5742 5740 5738 5735 5733 5731 5729 5727 5725 5722 5720 5717 5714 5710 5706 5701 5697 5691 5686 5683 5680 5678 5675 5672 5669 5666 5663 5661 5659 5656 5653 5650 5646 5643 5641 5639 5638 5637 5636 5635 5635 5634 5634 5634 5634 5633 5633 5633 5633 5632 5632 5631 5631 5631 5631 5630 5629 5628 5627 5626 5625 5624 5622 5621 5621 5622 5622 5622 5622 5623 5624 5624 5626 5627 5628 5630 5632 5634 5636 5638 5640 5642
5747 5745 5743 5740 5738 5736 5733 5731 5729 5727 5725 5723 5721 5719 5716 5713 5709 5705 5701 5696 5691 5686 5683 5681 5678 5675 5673 5669 5666 5663 5661 5659 5656 5654 5651 5647 5644 5642 5640 5638 5637 5636 5636 5635 5635 5635 5634 5634 5634 5634 5634 5634 5634 5633 5632 5632 5632 5632 5631 5630 5629 5628 5627 5626 5625 5623 5622 5621 5621 5622 5622 5622 5623 5623 5624 5625 5627 5628 5630 5632 5633 5635 5637 5639 5641
5745 5743 5741 5739 5736 5734 5732 5730 5728 5726 5724 5722 5720 5718 5715 5712 5709 5705 5701 5696 5691 5687 5683 5681 5679 5676 5673 5670 5667 5664 5662 5660 5658 5656 5652 5648 5645 5643 5642 5640 5639 5638 5637 5636 5636 5636 5635 5635 5635 5635 5635 5635 5635 5634 5634 5634 5634 5633 5632 5631 5630 5630 5629 5627 5626 5625 5624 5623 5622 5622 5622 5622 5623 5624 5625 5625 5627 5628 5629 5631 5633 5634 5636 5638 5640
5743 5741 5739 5737 5735 5732 5730 5729 5727 5725 5723 5721 5719 5717 5714 5712 5709 5705 5701 5697 5692 5687 5684 5681 5679 5677 5674 5671 5668 5665 5663 5661 5659 5657 5654 5650 5646 5644 5643 5642 5641 5639 5639 5638 5638 5638 5637 5637 5637 5636 5636 5636 5635 5635 5635 5636 5635 5635 5634 5633 5632 5631 5630 5629 5627 5626 5625 5625 5624 5623 5623 5623 5624 5624 5625 5626 5627 5628 5629 5630 5632 5633 5635 5637 5638
5742 5740 5737 5735 5733 5731 5729 5727 5726 5724 5722 5720 5718 5716 5714 5711 5709 5705 5702 5698 5693 5689 5685 5682 5680 5677 5674 5671 5669 5667 5665 5663 5661 5658 5656 5652 5649 5646 5644 5643 5642 5641 5640 5640 5640 5640 5639 5638 5638 5638 5637 5637 5637 5637 5637 5637 5637 5636 5635 5635 5634 5633 5632 5631 5629 5628 5627 5626 5626 5625 5625 5624 5625 5625 5626 5626 5627 5628 5629 5630 5631 5632 5634 5636 5637